Weather History for Berlin, NH

Change the Weather History Date:

Friday, August 9, 2013

  Actual Average Record
Temperature  
Mean Temperature 68 °F -  
Max Temperature 73 °F 76 °F 93 °F (2001)
Min Temperature 64 °F 49 °F 39 °F (2002)
Cooling Degree Days 4    
Growing Degree Days 18 (Base 50)    
Moisture  
Dew Point 66 °F    
Average Humidity 97    
Maximum Humidity 100    
Minimum Humidity 87    
Precipitation  
Precipitation 1.59 in - - ()
Sea Level Pressure  
Sea Level Pressure 29.91 in    
Wind  
Wind Speed 1 mph (ESE)    
Max Wind Speed 8 mph    
Max Gust Speed -    
Visibility 4 miles    
Events Fog , Rain , Thunderstorm    
Averages and records for this station are not official NWS values.
T = Trace of Precipitation, MM = Missing Value Source: NWS Daily Summary

Daily Weather History Graph

Daily Weather History Graph

Search for Another Location

Airport:

Trip Planner

Search our weather history database for the weather conditions in past years. The results will help you decide how hot, cold, wet, or windy it might be!

Date:

Astronomy

Aug. 09, 2013 Rise Set
Actual Time 5:40 AM EDT 7:58 PM EDT
Civil Twilight 5:08 AM EDT 8:31 PM EDT
Nautical Twilight 4:28 AM EDT 9:11 PM EDT
Astronomical Twilight 3:42 AM EDT 9:55 PM EDT
Moon 8:33 AM EDT (8/9) 8:56 PM EDT (8/9)
Length of Visible Light 15h 22m
Length of Day
14h 18m
Waxing Crescent, 7% of the Moon is Illuminated
Aug 9
Waxing Crescent
Aug 14
First Quarter
Aug 20
Full
Aug 28
Last Quarter
Sep 5
New

Hourly Weather History & Observations

Time (EDT) Temp. Dew Point Humidity Pressure Visibility Wind Dir Wind Speed Gust Speed Precip Events Conditions
12:11 AM 66.2 °F 64.4 °F 94% 30.03 in 1.8 mi Calm Calm - N/A   Overcast
12:13 AM 66.2 °F 64.4 °F 94% 30.03 in 3.0 mi Calm Calm - N/A   Overcast
12:52 AM 66.0 °F 64.9 °F 96% 30.00 in 1.5 mi Calm Calm - N/A   Overcast
12:55 AM 66.2 °F 64.4 °F 94% 30.01 in 0.8 mi Calm Calm - N/A   Overcast
1:26 AM 64.4 °F 64.4 °F 100% 30.01 in 0.2 mi Calm Calm - N/A Fog Fog
1:52 AM 64.9 °F 64.9 °F 100% 29.99 in 1.2 mi Calm Calm - N/A   Overcast
1:54 AM 64.4 °F 64.4 °F 100% 30.00 in 2.0 mi Calm Calm - N/A   Overcast
2:10 AM 64.4 °F 64.4 °F 100% 30.00 in 5.0 mi NNW 3.5 mph - N/A   Overcast
2:24 AM 64.4 °F 64.4 °F 100% 30.00 in 8.0 mi Calm Calm - N/A   Overcast
2:40 AM 64.4 °F 64.4 °F 100% 29.99 in 7.0 mi Calm Calm - N/A   Overcast
2:52 AM 64.9 °F 64.0 °F 97% 29.98 in 9.0 mi Calm Calm - N/A   Overcast
3:14 AM 64.4 °F 64.4 °F 100% 29.98 in 1.8 mi Calm Calm - N/A   Overcast
3:23 AM 64.4 °F 64.4 °F 100% 29.98 in 1.2 mi Calm Calm - N/A   Overcast
3:29 AM 64.4 °F 64.4 °F 100% 29.98 in 2.0 mi Calm Calm - N/A   Overcast
3:39 AM 64.4 °F 64.4 °F 100% 29.97 in 3.0 mi Calm Calm - N/A   Overcast
3:52 AM 64.9 °F 64.9 °F 100% 29.96 in 3.0 mi Calm Calm - N/A   Overcast
4:18 AM 64.4 °F 64.4 °F 100% 29.96 in 2.0 mi Calm Calm - N/A   Overcast
4:26 AM 64.4 °F 64.4 °F 100% 29.97 in 1.5 mi Calm Calm - N/A   Overcast
4:33 AM 64.4 °F 64.4 °F 100% 29.96 in 1.2 mi Calm Calm - 0.00 in Rain Light Rain
4:38 AM 64.4 °F 64.4 °F 100% 29.97 in 1.5 mi Calm Calm - 0.00 in Rain , Thunderstorm Light Thunderstorms and Rain
4:50 AM 64.4 °F 64.4 °F 100% 29.97 in 2.0 mi Calm Calm - 0.02 in Rain Light Rain
4:52 AM 64.9 °F 64.9 °F 100% 29.96 in 2.5 mi Calm Calm - 0.02 in Rain Light Rain
4:55 AM 64.4 °F 64.4 °F 100% 29.95 in 3.0 mi North 3.5 mph - 0.00 in Rain , Thunderstorm Light Thunderstorms and Rain
5:12 AM 64.4 °F 64.4 °F 100% 29.96 in 1.8 mi WNW 4.6 mph - 0.01 in Rain , Thunderstorm Light Thunderstorms and Rain
5:17 AM 64.4 °F 64.4 °F 100% 29.95 in 0.8 mi NE 4.6 mph - 0.22 in Rain , Thunderstorm Heavy Thunderstorms and Rain
5:25 AM 64.4 °F 64.4 °F 100% 29.95 in 1.0 mi NW 5.8 mph - 0.33 in Rain , Thunderstorm Heavy Thunderstorms and Rain
5:30 AM 64.4 °F 64.4 °F 100% 29.95 in 2.0 mi NNW 6.9 mph - 0.34 in Rain , Thunderstorm Light Thunderstorms and Rain
5:36 AM 64.4 °F 64.4 °F 100% 29.96 in 4.0 mi NW 4.6 mph - 0.36 in Rain , Thunderstorm Thunderstorms and Rain
5:40 AM 64.4 °F 64.4 °F 100% 29.97 in 1.8 mi WNW 5.8 mph - 0.46 in Rain , Thunderstorm Heavy Thunderstorms and Rain
5:44 AM 64.4 °F 64.4 °F 100% 29.98 in 0.8 mi Variable 3.5 mph - 0.57 in Rain , Thunderstorm Heavy Thunderstorms and Rain
5:52 AM 66.0 °F 64.9 °F 96% 29.96 in 0.5 mi North 8.1 mph - 0.97 in Fog , Rain , Thunderstorm Heavy Thunderstorms and Rain
6:02 AM 66.2 °F 64.4 °F 94% 29.96 in 1.8 mi NNE 8.1 mph - 0.04 in Rain , Thunderstorm Thunderstorms and Rain
6:04 AM 66.2 °F 64.4 °F 94% 29.96 in 3.0 mi North 8.1 mph - 0.05 in Rain , Thunderstorm Light Thunderstorms and Rain
6:10 AM 66.2 °F 64.4 °F 94% 29.96 in 10.0 mi South 3.5 mph - 0.05 in Rain Light Rain
6:25 AM 66.2 °F 66.2 °F 100% 29.96 in 10.0 mi Calm Calm - 0.05 in   Mostly Cloudy
6:52 AM 66.9 °F 66.0 °F 97% 29.95 in 10.0 mi Calm Calm - 0.05 in Rain Light Rain
7:00 AM 66.2 °F 66.2 °F 100% 29.96 in 8.0 mi Calm Calm - 0.00 in Rain Light Rain
7:15 AM 66.2 °F 66.2 °F 100% 29.95 in 10.0 mi NNW 3.5 mph - 0.00 in   Overcast
7:52 AM 66.9 °F 66.0 °F 97% 29.94 in 1.8 mi Calm Calm - 0.04 in Rain Light Rain
7:54 AM 66.2 °F 66.2 °F 100% 29.95 in 0.8 mi Calm Calm - 0.03 in Rain Rain
8:06 AM 66.2 °F 66.2 °F 100% 29.96 in 1.2 mi Calm Calm - 0.11 in Rain Rain
8:10 AM 66.2 °F 66.2 °F 100% 29.96 in 2.0 mi Calm Calm - 0.12 in Rain Rain
8:15 AM 66.2 °F 66.2 °F 100% 29.96 in 1.2 mi SSE 3.5 mph - 0.18 in Rain Heavy Rain
8:19 AM 66.2 °F 66.2 °F 100% 29.96 in 0.8 mi Calm Calm - 0.25 in Rain Heavy Rain
8:28 AM 66.2 °F 66.2 °F 100% 29.96 in 1.5 mi Calm Calm - 0.26 in Rain Light Rain
8:31 AM 66.2 °F 66.2 °F 100% 29.95 in 3.0 mi ESE 3.5 mph - 0.26 in Rain Light Rain
8:52 AM 68.0 °F 66.9 °F 96% 29.94 in 10.0 mi Calm Calm - 0.26 in   Overcast
9:11 AM 69.8 °F 66.2 °F 88% 29.94 in 10.0 mi Calm Calm - N/A   Overcast
9:48 AM 69.8 °F 68.0 °F 94% 29.94 in 10.0 mi Calm Calm - 0.00 in   Mostly Cloudy
9:52 AM 70.0 °F 68.0 °F 93% 29.92 in 10.0 mi Calm Calm - 0.00 in   Overcast
10:38 AM 71.6 °F 69.8 °F 94% 29.92 in 10.0 mi Calm Calm - N/A   Overcast
10:52 AM 72.0 °F 69.1 °F 91% 29.91 in 10.0 mi Calm Calm - N/A   Overcast
11:10 AM 71.6 °F 69.8 °F 94% 29.92 in 10.0 mi SSE 5.8 mph - N/A   Overcast
11:39 AM 71.6 °F 69.8 °F 94% 29.91 in 1.8 mi SSW 4.6 mph - 0.04 in Rain Heavy Rain
11:49 AM 71.6 °F 69.8 °F 94% 29.91 in 2.0 mi South 4.6 mph - 0.07 in Rain Heavy Rain
11:52 AM 70.0 °F 69.1 °F 97% 29.90 in 1.8 mi SSE 5.8 mph - 0.08 in Rain Heavy Rain
12:02 PM 69.8 °F 69.8 °F 100% 29.90 in 2.5 mi SSE 5.8 mph - 0.03 in Rain Rain
12:17 PM 69.8 °F 68.0 °F 94% 29.90 in 5.0 mi SSE 4.6 mph - 0.06 in Rain Light Rain
12:52 PM 70.0 °F 69.1 °F 97% 29.88 in 4.0 mi SSE 5.8 mph - 0.09 in Rain Rain
1:52 PM 72.0 °F 69.1 °F 91% 29.86 in 8.0 mi Calm Calm - 0.03 in Rain Light Rain
2:52 PM 72.0 °F 69.1 °F 91% 29.85 in 10.0 mi East 3.5 mph - 0.02 in Rain Light Rain
3:52 PM 72.0 °F 70.0 °F 93% 29.83 in 6.0 mi Calm Calm - 0.02 in Rain Light Rain
4:52 PM 73.0 °F 69.1 °F 87% 29.82 in 10.0 mi Calm Calm - 0.01 in Rain Light Rain
5:52 PM 72.0 °F 70.0 °F 93% 29.77 in 10.0 mi East 3.5 mph - 0.00 in   Overcast
6:52 PM 72.0 °F 70.0 °F 93% 29.77 in 10.0 mi Calm Calm - N/A   Mostly Cloudy
6:59 PM 71.6 °F 69.8 °F 94% 29.78 in 10.0 mi Calm Calm - N/A   Mostly Cloudy
7:12 PM 71.6 °F 69.8 °F 94% 29.79 in 10.0 mi NW 3.5 mph - N/A   Mostly Cloudy
7:52 PM 72.0 °F 69.1 °F 91% 29.78 in 9.0 mi Calm Calm - N/A   Overcast
8:36 PM 69.8 °F 69.8 °F 100% 29.79 in 9.0 mi Calm Calm - N/A   Overcast
8:52 PM 69.1 °F 68.0 °F 96% 29.79 in 10.0 mi Calm Calm - N/A   Mostly Cloudy
9:11 PM 66.2 °F 66.2 °F 100% 29.80 in 4.0 mi Calm Calm - N/A   Scattered Clouds
9:17 PM 68.0 °F 66.2 °F 94% 29.80 in 1.2 mi Calm Calm - N/A   Scattered Clouds
9:22 PM 68.0 °F 66.2 °F 94% 29.80 in 0.5 mi Calm Calm - N/A Fog Fog
9:40 PM 64.4 °F 64.4 °F 100% 29.80 in 0.2 mi Calm Calm - N/A Fog Fog
9:52 PM 64.9 °F 64.9 °F 100% 29.79 in 0.5 mi Calm Calm - N/A Fog Fog
10:01 PM 64.4 °F 64.4 °F 100% 29.80 in 0.2 mi Calm Calm - N/A Fog Fog
10:11 PM 64.4 °F 64.4 °F 100% 29.79 in 0.2 mi Calm Calm - N/A Fog Fog
10:18 PM 64.4 °F 64.4 °F 100% 29.79 in 0.8 mi Calm Calm - N/A   Overcast
10:34 PM 64.4 °F 64.4 °F 100% 29.79 in 0.5 mi Calm Calm - N/A Fog Fog
10:41 PM 64.4 °F 64.4 °F 100% 29.79 in 0.2 mi Calm Calm - N/A Fog Fog
10:52 PM 66.0 °F 66.0 °F 100% 29.78 in 0.2 mi Calm Calm - N/A Fog Fog
11:34 PM 64.4 °F 64.4 °F 100% 29.79 in 1.0 mi South 3.5 mph - N/A   Overcast
11:44 PM 64.4 °F 64.4 °F 100% 29.79 in 0.5 mi Calm Calm - N/A Fog Fog
11:52 PM 64.9 °F 64.9 °F 100% 29.78 in 0.2 mi South 3.5 mph - N/A Fog Fog